Погода в Оженине

Украина / Ровненская область     50°26′30″N   26°28′59″E
темп.,
°C
ветер,
м/с
пор.,
м/с
влажн.,
%
обл.,
%
осадки,
мм/ч
давл.,
гПа
погр.,
м
24 июля, сб
сб2400:00+18сз2265100 0.0 101625
03:00+18зсз1167100 0.0 101711
06:00+18сз1170100 0.0 101611
09:00+20зюз1165100 0.0 1016216
12:00+21з1260100 0.0 1017500
15:00+24зюз225026 0.0 10161533
18:00+24з225163 0.0 10161022
21:00+19всв116630 0.0 101719
25 июля, вс
вс2500:00+17ю227010 0.0 101812
03:00+16ю33723 0.0 101823
06:00+15ю22763 0.0 101924
09:00+21ююв3462100 0.0 1019266
12:00+25ююв34435 0.0 10191873
15:00+27ююв3438100 0.0 10182534
18:00+23юв4863100 0.0 1018239
21:00+21юв386580 0.0 1018205
26 июля, пн
пн2600:00+19юв377260 0.0 1019144
03:00+19юв377096 0.0 1019151
06:00+19юв4106799 0.0 1019262
09:00+22юв6115915 0.0 1018474
12:00+27ююв79466 0.0 10181247
15:00+29ю784115 0.0 10181853
18:00+27ю594926 0.0 1017901
21:00+22юв4967100 0.0 1017170
27 июля, вт
вт2700:00+19юв411755 0.0 1018218
03:00+18юв412775 0.0 1018256
06:00+18юв411735 0.0 1017237
09:00+23ююв59595 0.0 1017388
12:00+28ююв684490 0.0 10161127
15:00+30ю6744100 0.0 10161508
18:00+29ю565084 0.0 10151584
21:00+24ююв5117080 0.1 1014241
28 июля, ср
ср2800:00+20юв1690100 1.9 1014143
03:00+19в4796100 7.7 1014150
06:00+18юв479561 2.1 1012133
09:00+23ююв487979 2.8 1011326
12:00+30юз694469 0.0 10101508
15:00+31юз793998 0.0 10082771
18:00+28зюз711555 0.1 10081525
21:00+24з714660 0.1 10091116